Weather History for Crookston, MN

Change the Weather History Date:

Tuesday, July 2, 2013

  Actual Average Record
Temperature  
Mean Temperature 72 °F -  
Max Temperature 84 °F 73 °F 91 °F (2012)
Min Temperature 59 °F 53 °F 44 °F (2014)
Cooling Degree Days 6    
Growing Degree Days 22 (Base 50)    
Moisture  
Dew Point 58 °F    
Average Humidity 60    
Maximum Humidity 88    
Minimum Humidity 33    
Precipitation  
Precipitation 0.00 in - - ()
Sea Level Pressure  
Sea Level Pressure 30.12 in    
Wind  
Wind Speed 1 mph (East)    
Max Wind Speed 7 mph    
Max Gust Speed -    
Visibility 10 miles    
Events      
Averages and records for this station are not official NWS values.
T = Trace of Precipitation, MM = Missing Value Source: NWS Daily Summary

Daily Weather History Graph

Daily Weather History Graph

Search for Another Location

Airport:

Trip Planner

Search our weather history database for the weather conditions in past years. The results will help you decide how hot, cold, wet, or windy it might be!

Date:

Astronomy

Jul. 02, 2013 Rise Set
Actual Time 5:32 AM CDT 9:28 PM CDT
Civil Twilight 4:51 AM CDT 10:08 PM CDT
Nautical Twilight 3:55 AM CDT 11:04 PM CDT
Astronomical Twilight 2:27 AM CDT 12:32 AM CDT
Moon 1:49 AM CDT (7/2) 4:32 PM CDT (7/2)
Length of Visible Light 17h 16m
Length of Day
15h 55m
Waning Crescent, 26% of the Moon is Illuminated
Jul 2
Waning Crescent
Jul 8
New
Jul 15
First Quarter
Jul 22
Full
Jul 29
Last Quarter

Hourly Weather History & Observations

Time (CDT) Temp. Heat Index Dew Point Humidity Pressure Visibility Wind Dir Wind Speed Gust Speed Precip Events Conditions
12:14 AM 69.8 °F - 57.2 °F 64% 30.16 in 10.0 mi Calm Calm - N/A   Clear
12:34 AM 68.0 °F - 57.2 °F 68% 30.16 in 10.0 mi Calm Calm - N/A   Clear
12:54 AM 66.2 °F - 59.0 °F 78% 30.17 in 10.0 mi Calm Calm - N/A   Clear
1:15 AM 64.4 °F - 59.0 °F 83% 30.17 in 10.0 mi Calm Calm - N/A   Clear
1:34 AM 64.4 °F - 57.2 °F 77% 30.17 in 10.0 mi Calm Calm - N/A   Scattered Clouds
1:54 AM 64.4 °F - 57.2 °F 77% 30.17 in 10.0 mi Calm Calm - N/A   Scattered Clouds
2:15 AM 66.2 °F - 57.2 °F 73% 30.16 in 10.0 mi Calm Calm - N/A   Scattered Clouds
2:34 AM 62.6 °F - 57.2 °F 82% 30.16 in 10.0 mi Calm Calm - N/A   Clear
2:55 AM 62.6 °F - 57.2 °F 82% 30.16 in 10.0 mi SSE 4.6 mph - N/A   Clear
3:14 AM 62.6 °F - 57.2 °F 82% 30.16 in 10.0 mi ESE 3.5 mph - N/A   Clear
3:34 AM 64.4 °F - 57.2 °F 77% 30.16 in 10.0 mi Calm Calm - N/A   Clear
3:55 AM 66.2 °F - 57.2 °F 73% 30.16 in 10.0 mi ESE 4.6 mph - N/A   Clear
4:14 AM 64.4 °F - 57.2 °F 77% 30.16 in 10.0 mi SE 4.6 mph - N/A   Scattered Clouds
4:35 AM 62.6 °F - 55.4 °F 77% 30.16 in 10.0 mi Calm Calm - N/A   Scattered Clouds
4:54 AM 60.8 °F - 55.4 °F 82% 30.16 in 7.0 mi Calm Calm - N/A   Scattered Clouds
5:14 AM 59.0 °F - 55.4 °F 88% 30.16 in 10.0 mi SE 3.5 mph - N/A   Scattered Clouds
5:34 AM 60.8 °F - 57.2 °F 88% 30.16 in 7.0 mi SE 3.5 mph - N/A   Scattered Clouds
5:55 AM 60.8 °F - 57.2 °F 88% 30.16 in 7.0 mi Calm Calm - N/A   Scattered Clouds
6:14 AM 60.8 °F - 57.2 °F 88% 30.16 in 7.0 mi Calm Calm - N/A   Scattered Clouds
6:34 AM 62.6 °F - 59.0 °F 88% 30.17 in 7.0 mi Calm Calm - N/A   Scattered Clouds
6:55 AM 64.4 °F - 59.0 °F 83% 30.16 in 7.0 mi Calm Calm - N/A   Scattered Clouds
7:14 AM 64.4 °F - 60.8 °F 88% 30.16 in 7.0 mi Calm Calm - N/A   Clear
7:34 AM 66.2 °F - 60.8 °F 83% 30.16 in 7.0 mi Calm Calm - N/A   Clear
7:55 AM 68.0 °F - 60.8 °F 78% 30.16 in 10.0 mi Calm Calm - N/A   Clear
8:14 AM 69.8 °F - 60.8 °F 73% 30.16 in 7.0 mi Calm Calm - N/A   Clear
8:34 AM 69.8 °F - 60.8 °F 73% 30.16 in 10.0 mi Calm Calm - N/A   Clear
8:55 AM 71.6 °F - 60.8 °F 69% 30.16 in 10.0 mi Calm Calm - N/A   Clear
9:14 AM 73.4 °F - 62.6 °F 69% 30.16 in 10.0 mi Calm Calm - N/A   Clear
9:34 AM 73.4 °F - 62.6 °F 69% 30.16 in 10.0 mi Calm Calm - N/A   Clear
9:55 AM 73.4 °F - 62.6 °F 69% 30.15 in 10.0 mi Calm Calm - N/A   Scattered Clouds
10:14 AM 77.0 °F - 62.6 °F 61% 30.15 in 10.0 mi Calm Calm - N/A   Mostly Cloudy
10:34 AM 77.0 °F - 60.8 °F 57% 30.15 in 10.0 mi Calm Calm - N/A   Scattered Clouds
10:55 AM 78.8 °F - 64.4 °F 61% 30.15 in 10.0 mi Calm Calm - N/A   Clear
11:14 AM 80.6 °F 81.5 °F 60.8 °F 51% 30.14 in 10.0 mi Calm Calm - N/A   Clear
11:34 AM 80.6 °F 81.5 °F 60.8 °F 51% 30.14 in 10.0 mi Calm Calm - N/A   Scattered Clouds
11:55 AM 80.6 °F 80.5 °F 55.4 °F 42% 30.14 in 10.0 mi North 4.6 mph - N/A   Clear
12:14 PM 82.4 °F 81.7 °F 55.4 °F 39% 30.14 in 10.0 mi North 4.6 mph - N/A   Clear
12:34 PM 82.4 °F 81.7 °F 55.4 °F 39% 30.14 in 10.0 mi North 4.6 mph - N/A   Clear
12:55 PM 82.4 °F 81.7 °F 55.4 °F 39% 30.14 in 10.0 mi Calm Calm - N/A   Clear
1:14 PM 84.2 °F 83.5 °F 57.2 °F 40% 30.13 in 10.0 mi NNE 3.5 mph - N/A   Clear
1:35 PM 84.2 °F 83.0 °F 55.4 °F 37% 30.12 in 10.0 mi Calm Calm - N/A   Clear
1:55 PM 84.2 °F 82.8 °F 53.6 °F 35% 30.12 in 10.0 mi North 3.5 mph - N/A   Clear
2:14 PM 84.2 °F 82.8 °F 53.6 °F 35% 30.11 in 10.0 mi Calm Calm - N/A   Clear
2:35 PM 84.2 °F - 51.8 °F 33% 30.11 in 10.0 mi WSW 3.5 mph - N/A   Scattered Clouds
2:55 PM 84.2 °F 82.8 °F 53.6 °F 35% 30.11 in 10.0 mi North 3.5 mph - N/A   Clear
3:14 PM 84.2 °F - 51.8 °F 33% 30.11 in 10.0 mi Calm Calm - N/A   Clear
3:35 PM 84.2 °F 82.8 °F 53.6 °F 35% 30.10 in 10.0 mi Calm Calm - N/A   Clear
3:55 PM 84.2 °F 82.8 °F 53.6 °F 35% 30.09 in 10.0 mi North 3.5 mph - N/A   Clear
4:14 PM 84.2 °F 82.8 °F 53.6 °F 35% 30.09 in 10.0 mi Calm Calm - N/A   Clear
4:35 PM 84.2 °F 82.8 °F 53.6 °F 35% 30.08 in 10.0 mi NW 3.5 mph - N/A   Clear
4:54 PM 84.2 °F 83.0 °F 55.4 °F 37% 30.08 in 10.0 mi West 5.8 mph - N/A   Clear
5:14 PM 84.2 °F 83.0 °F 55.4 °F 37% 30.08 in 10.0 mi West 5.8 mph - N/A   Clear
5:35 PM 84.2 °F 82.8 °F 53.6 °F 35% 30.07 in 10.0 mi Calm Calm - N/A   Clear
5:54 PM 84.2 °F 82.8 °F 53.6 °F 35% 30.07 in 10.0 mi Calm Calm - N/A   Clear
6:14 PM 84.2 °F 82.8 °F 53.6 °F 35% 30.06 in 10.0 mi Calm Calm - N/A   Clear
6:35 PM 84.2 °F 83.0 °F 55.4 °F 37% 30.06 in 10.0 mi Calm Calm - N/A   Clear
6:54 PM 84.2 °F 83.0 °F 55.4 °F 37% 30.06 in 10.0 mi Calm Calm - N/A   Clear
7:15 PM 84.2 °F 83.0 °F 55.4 °F 37% 30.06 in 10.0 mi Calm Calm - N/A   Clear
7:35 PM 84.2 °F 82.8 °F 53.6 °F 35% 30.05 in 10.0 mi Calm Calm - N/A   Clear
7:54 PM 82.4 °F 81.7 °F 55.4 °F 39% 30.05 in 10.0 mi Calm Calm - N/A   Clear
8:15 PM 82.4 °F 82.5 °F 59.0 °F 45% 30.05 in 10.0 mi Calm Calm - N/A   Clear
8:35 PM 80.6 °F 81.5 °F 60.8 °F 51% 30.05 in 7.0 mi Calm Calm - N/A   Clear
8:54 PM 80.6 °F 81.5 °F 60.8 °F 51% 30.04 in 10.0 mi Calm Calm - N/A   Clear
9:15 PM 78.8 °F - 60.8 °F 54% 30.05 in 10.0 mi Calm Calm - N/A   Scattered Clouds
9:35 PM 78.8 °F - 57.2 °F 47% 30.05 in 10.0 mi Calm Calm - N/A   Mostly Cloudy
9:54 PM 77.0 °F - 57.2 °F 50% 30.05 in 10.0 mi Calm Calm - N/A   Mostly Cloudy
10:15 PM 71.6 °F - 62.6 °F 73% 30.05 in 10.0 mi Calm Calm - N/A   Mostly Cloudy
10:34 PM 69.8 °F - 62.6 °F 78% 30.04 in 10.0 mi SE 4.6 mph - N/A   Scattered Clouds
10:55 PM 69.8 °F - 62.6 °F 78% 30.04 in 10.0 mi SSE 6.9 mph - N/A   Clear
11:14 PM 69.8 °F - 62.6 °F 78% 30.04 in 10.0 mi SSE 3.5 mph - N/A   Scattered Clouds
11:35 PM 69.8 °F - 62.6 °F 78% 30.04 in 10.0 mi Calm Calm - N/A   Mostly Cloudy
11:54 PM 68.0 °F - 62.6 °F 83% 30.03 in 10.0 mi SSE 3.5 mph - N/A   Scattered Clouds